Regional Weather Roundup
Issued by NWS

Home | Current Version | Previous Version | Text Only | Print | Product List | Glossary Off
Versions: 1 2 3 4 5 6 7 8 9 10 11 12 13 14 15 16 17 18 19 20 21 22 23 24 25 26 27 28 29 30 31 32 33 34 35 36 37 38 39 40 41 42 43 44 45 46 47 48 49 50

000
ASUS43 KMKX 300121
RWRWI

WISCONSIN REGIONAL WEATHER ROUNDUP
NATIONAL WEATHER SERVICE MILWAUKEE/SULLIVAN WI
800 PM CDT MON AUG 29 2016

NOTE: "FAIR" INDICATES FEW OR NO CLOUDS BELOW 12,000 FEET WITH NO
SIGNIFICANT WEATHER AND/OR OBSTRUCTIONS TO VISIBILITY.

WIZ001-002-006>008-014>016-023>028-300200-
NORTHWEST WISCONSIN

CITY           SKY/WX    TMP DP  RH WIND       PRES   REMARKS
SUPERIOR ARPT  CLOUDY    76  71  84 SW7       30.08R
ASHLAND        CLOUDY    74  71  91 SE7       30.10S THUNDER
HAYWARD        TSTM      75  70  84 CALM      30.15R
SIREN          LGT RAIN  76  72  86 N10G16    30.15R
CUMBERLAND     PTCLDY    72  68  88 S5        30.14F
RICE LAKE      PTCLDY    73  69  88 S3        30.15F
CHETEK         NOT AVBL
LADYSMITH      CLOUDY    75  71  86 S3        30.16F
EAU CLAIRE     MOCLDY    77  72  84 S3        30.13R
MENOMONIE      PTCLDY    76  70  82 S6        30.14R
NEW RICHMOND   PTCLDY    76  70  82 CALM      30.14R
OSCEOLA        MOCLDY    78  72  81 S6        30.15R HX  80
$$

WIZ003>005-009-010-017-018-300200-
NORTH CENTRAL WISCONSIN

CITY           SKY/WX    TMP DP  RH WIND       PRES   REMARKS
MANITOWISH WTR NOT AVBL
ARBOR VITAE    CLOUDY    72  67  85 S3        30.17R
WOODRUFF       CLOUDY    72  67  85 S3        30.17R
RHINELANDER    PTCLDY    72  70  93 SW5       30.18S
EAGLE RIVER    FOG       64  64 100 W3        30.16S VSB 1/2
LAND O LAKES   PTCLDY    73  66  79 SW5       30.17S
PHILLIPS       CLOUDY    72  69  91 CALM      30.17R
TOMAHAWK       CLEAR     70  67  92 CALM      30.18R
MEDFORD        CLOUDY    72  72 100 CALM      30.18R
MERRILL        MOCLDY    73  71  96 CALM      30.18R
$$

WIZ029-030-035-036-043>047-300200-
CENTRAL WISCONSIN

CITY           SKY/WX    TMP DP  RH WIND       PRES   REMARKS
WAUSAU         CLEAR     76  69  79 SW3       30.16S
MOSINEE        CLEAR     72  70  94 S3        30.18F
MARSHFIELD     PTCLDY    74  68  81 S5        30.17S
STEVENS POINT  MOCLDY    74  68  83 S3        30.18S
WAUPACA        PTCLDY    77  74  91 CALM      30.17S
WAUTOMA        MOCLDY    74  71  91 CALM      30.17F
WISC RAPIDS    PTCLDY    74  71  91 S3        30.18F
CAMP DOUGLAS   MOCLDY    75  72  88 S5        30.16F
$$

WIZ011>013-019>022-031-037>040-048>050-300200-
NORTHEAST WISCONSIN

CITY           SKY/WX    TMP DP  RH WIND       PRES   REMARKS
ANTIGO         CLEAR     71  67  87 CALM      30.19S
SHAWANO        CLOUDY    79  71  76 CALM      30.16S HX  81
OCONTO         NOT AVBL
STURGEON BAY   PTCLDY    71  65  81 S10       30.16F
GREEN BAY      CLOUDY    74  73  97 CALM      30.16S
MANITOWOC      PTCLDY    69  64  84 E3        30.17F
APPLETON       MOCLDY    77  66  69 VRB3      30.16F
CLINTONVILLE   MOCLDY    73  70  88 S3        30.16S
OSHKOSH        CLOUDY    74  70  87 S3        30.16F
$$

WIZ032>034-041-042-053>061-300200-
SOUTHWEST WISCONSIN

CITY           SKY/WX    TMP DP  RH WIND       PRES   REMARKS
LA CROSSE      CLEAR     78  72  81 S7        30.14S HX  80
SPARTA         PTCLDY    73  70  88 S3        30.17S
VIROQUA        CLEAR     72  72  98 S5        30.20R
BOSCOBEL       CLOUDY    76  74  93 N3        30.16S
PRAIRIE DU CHI CLOUDY    75  72  89 CALM      30.17R
PLATTEVILLE    CLOUDY    76  76  98 E3        30.17F
$$

WIZ056-057-062-063-064-067-068-300200-
SOUTH CENTRAL WISCONSIN

CITY           SKY/WX    TMP DP  RH WIND       PRES   REMARKS
REEDSBURG      NOT AVBL
BARABOO/DELLS  PTCLDY    72  69  90 CALM      30.17F
LONE ROCK      CLOUDY    76  72  87 CALM      30.17S
MINERAL POINT  CLOUDY    77  73  88 CALM      30.18F
MADISON        CLOUDY    78  70  76 SE7       30.17F HX  80
MIDDLETON      CLOUDY    77  72  83 SE3       30.18S
WATERTOWN      CLOUDY    76  70  82 SW8       30.18S
MONROE         PTCLDY    72  68  88 SE3       30.18F
JANESVILLE     LGT RAIN  72  72 100 SE3       30.17F
$$

WIZ051-052-058>065-066-070>072-300200-
SOUTHEAST WISCONSIN

CITY           SKY/WX    TMP DP  RH WIND       PRES   REMARKS
MILWAUKEE      MOCLDY    76  70  82 S3        30.18S
WAUKESHA       PTCLDY    75  66  73 S6        30.20S
MILWAUKEE/TIMM CLEAR     75  64  69 CALM      30.18
RACINE         CLOUDY    75  70  84 SE5       30.19F
BURLINGTON     CLOUDY    70  67  90 CALM      30.18F
KENOSHA        CLOUDY    74  69  85 CALM      30.19F
FOND DU LAC    MOCLDY    73  69  87 S3        30.17F
SHEBOYGAN      PTCLDY    70  64  81 CALM      30.18F
WEST BEND      MOCLDY    72  64  78 CALM      30.19R
JUNEAU         MOCLDY    73  68  83 CALM      30.19S
$$

LSZ147-162-300200-
LAKE SUPERIOR

STATION/POSITION TIME  TEMP    WIND        PRES    WAVE
                       AIR SEA DIR/SP/G            HT/PER
                 (UTC) (F)     (DEG/KT/KT) (MB)    (FT/S)
W MID LAKE BUOY  0050   69 69  310/  2/  4 1017.8F   1
DEVILS ISLAND    0100   76     230/  8/  9 1018.1S
PORT WING        0000   82     190/  2/  3 1018.3
SAXON HARBOR     0100   74     210/  9/ 17 1019.0
$$

LMZ867-665-643>646-300200-
LAKE MICHIGAN

STATION/POSITION TIME  TEMP    WIND        PRES    WAVE
                       AIR SEA DIR/SP/G            HT/PER
                 (UTC) (F)     (DEG/KT/KT) (MB)    (FT/S)
CHAMBERS ISLAND  0040   75     160/  5/  9 1020.3S
S GREEN BAY BUOY 0100   77 74  180/ 10/ 12 1020.4
N MID LAKE BUOY  0050   72 71  200/ 12/ 14 1020.3F   1/ 3
NORTHPORT PIER   0000   74     160/  5/  8 1020.7F
SISTER BAY       0037   74     180/ 12/ 15   N/A
ALGOMA LAKESHORE 0015          210/  9/ 10   N/A
KEWAUNEE LAKESHO 0000   67                 1021.3
SHEBOYGAN LAKESH 0100   72     170/  4/  5 1021.2F
PORT WASHINGTON  0000   73     190/  4/  6 1022.4
ATWATER BUOY     0100   70     170/  6/  6   N/A
MILWAUKEE LAKESH 0010   71     280/  1/  1   N/A
S MID LAKE BUOY  0050   76 78   80/  4/  4 1021.6F   0
KENOSHA   LAKESH 0100   74        CALM     1021.3F
$$

TC  - TEMPERATURE IN CELSIUS
VSB - VISIBILITY IN STATUTE MILES
WCI - WIND CHILL INDEX
HX  - HEAT INDEX





USA.gov is the U.S. government's official web portal to all federal, state and local government web resources and services.